TimeGMT,TemperatureF,Dew PointF,Humidity,Sea Level PressureIn,VisibilityMPH,Wind Direction,Wind SpeedMPH,Gust SpeedMPH,PrecipitationIn,Events,Conditions,WindDirDegrees,DateUTC
12:50 AM,32.0,32.0,100,29.47,-9999.0,NNE,3.5,-,N/A,,Unknown,20,2012-11-05 00:50:00
1:50 AM,33.8,32.0,93,29.47,0.1,SW,1.2,-,N/A,,Unknown,220,2012-11-05 01:50:00
2:50 AM,35,34,93,29.52,0,West,1.2,,,,,260,2012-11-05 02:50:00
2:50 AM,35.6,33.8,93,29.50,0.1,West,1.2,-,N/A,,Unknown,260,2012-11-05 02:50:00
3:50 AM,37.4,35.6,93,29.50,0.2,NW,1.2,-,N/A,,Unknown,310,2012-11-05 03:50:00
4:50 AM,39.2,37.4,93,29.53,-9999.0,WNW,3.5,-,N/A,,Mostly Cloudy,290,2012-11-05 04:50:00
5:50 AM,38,37,97,29.57,3,NW,3.5,,,,Mist,320,2012-11-05 05:50:00
5:50 AM,39.2,37.4,93,29.56,3.1,NW,3.5,-,N/A,,Mostly Cloudy,320,2012-11-05 05:50:00
6:50 AM,39.2,39.2,100,29.56,5.0,NE,3.5,-,N/A,,Mostly Cloudy,40,2012-11-05 06:50:00
7:50 AM,39.2,37.4,93,29.62,-9999.0,North,5.8,-,N/A,,Clear,10,2012-11-05 07:50:00
8:50 AM,42,37,76,29.65,17,North,8.1,,,,Scattered Clouds,10,2012-11-05 08:50:00
8:50 AM,42.8,37.4,81,29.62,6.2,North,8.1,-,N/A,,Scattered Clouds,10,2012-11-05 08:50:00
9:50 AM,44.6,37.4,76,29.68,6.2,North,10.4,-,N/A,,Mostly Cloudy,10,2012-11-05 09:50:00
10:50 AM,46.4,37.4,71,29.71,6.2,NNE,9.2,-,N/A,,Mostly Cloudy,20,2012-11-05 10:50:00
11:50 AM,48,35,50,29.73,25,NNE,9.2,,,,Scattered Clouds,30,2012-11-05 11:50:00
11:50 AM,48.2,35.6,62,29.71,6.2,NNE,9.2,-,N/A,,Scattered Clouds,30,2012-11-05 11:50:00
12:50 PM,48.2,35.6,62,29.74,6.2,North,11.5,-,N/A,,Scattered Clouds,10,2012-11-05 12:50:00
1:50 PM,48.2,33.8,58,29.77,6.2,North,11.5,-,N/A,,Partly Cloudy,10,2012-11-05 13:50:00
2:50 PM,48,35,51,29.80,31,North,9.2,,,,Scattered Clouds,10,2012-11-05 14:50:00
2:50 PM,48.2,35.6,62,29.80,6.2,North,9.2,-,N/A,,Partly Cloudy,10,2012-11-05 14:50:00
3:50 PM,46.4,35.6,66,29.80,6.2,NNW,8.1,-,N/A,,Partly Cloudy,330,2012-11-05 15:50:00
4:50 PM,42.8,35.6,76,29.83,6.2,NNW,4.6,-,N/A,,Partly Cloudy,330,2012-11-05 16:50:00
5:50 PM,41,35,73,29.88,19,NW,4.6,,,,Scattered Clouds,310,2012-11-05 17:50:00
5:50 PM,41.0,35.6,81,29.86,6.2,NW,4.6,-,N/A,,Partly Cloudy,310,2012-11-05 17:50:00
6:50 PM,39.2,35.6,87,29.89,6.2,WNW,5.8,-,N/A,,Partly Cloudy,300,2012-11-05 18:50:00
7:50 PM,37.4,33.8,87,29.92,6.2,WNW,5.8,-,N/A,,Partly Cloudy,300,2012-11-05 19:50:00
8:50 PM,36,33,87,29.96,6,WNW,4.6,,,,Scattered Clouds,300,2012-11-05 20:50:00
8:50 PM,35.6,33.8,93,29.95,6.2,WNW,4.6,-,N/A,,Partly Cloudy,300,2012-11-05 20:50:00
9:50 PM,37.4,33.8,87,29.98,5.6,West,3.5,-,N/A,,Haze,280,2012-11-05 21:50:00
10:50 PM,33.8,32.0,93,29.98,4.3,WNW,2.3,-,N/A,Fog,Fog,290,2012-11-05 22:50:00
11:50 PM,33,31,92,30.03,5,West,3.5,,,,,270,2012-11-05 23:50:00
11:50 PM,33.8,32.0,93,30.01,5.0,West,3.5,-,N/A,,Unknown,270,2012-11-05 23:50:00